{"data":{"norad_id":59896,"intl_designator":"2024-100M","name":"STARLINK-31905","alt_names":[],"object_type":"PAYLOAD","status":"ACTIVE","operator":null,"country":"US","launch_date":"2024-05-28","launch_site_code":"AFETR","launch_vehicle":null,"mission":null,"orbit_class":"UNKNOWN","rcs_meters":null,"size_class":null,"mass_kg":null,"dimensions":null,"purposes":["comms"],"wikipedia_slug":null,"has_3d_model":false,"image_url":null,"decayed_at":null,"tle_current":{"epoch":"2026-05-25T01:08:59.771328Z","epoch_age_seconds":66874,"freshness":"FRESH","line1":"1 59896U 24100M   26145.04791402  .00001348  00000+0  58497-4 0  9991","line2":"2 59896  43.0020  50.8134 0000988 275.0876  84.9863 15.27583227112878","mean_motion":15.27583227,"eccentricity":9.88e-5,"inclination_deg":43.002,"raan_deg":50.8134,"arg_perigee_deg":275.0876,"mean_anomaly_deg":84.9863,"bstar":5.8497e-5,"rev_number":11287,"period_min":94.266549576352,"perigee_km":482.36154902615,"apogee_km":483.71731748936,"semimajor_km":6861.1764332578,"source":"CELESTRAK","updated_at":"2026-05-25T13:38:19.118250Z"}}}